| time (UTC) | temp F | wind direction | speed MPH | gust MPH | rain 1hr in | rain 24hr in | rain mn in | humidity % | barometer mb |
| 20260901190208 | 83 | 208 | 1.0 | 3.0 | 0.00 | 0.00 | 0.00 | 75 | |
| 20260901185204 | 83 | 241 | 2.0 | 6.0 | 0.00 | 0.00 | 0.00 | 69 | |
| 20260901184204 | 83 | 233 | 1.0 | 8.0 | 0.00 | 0.00 | 0.00 | 68 | |
| 20260901183204 | 84 | 228 | 1.0 | 7.0 | 0.00 | 0.00 | 0.00 | 68 | |
| 20260901182204 | 84 | 244 | 3.0 | 8.0 | 0.00 | 0.00 | 0.00 | 66 | |
| 20260901181204 | 83 | 231 | 3.0 | 7.0 | 0.00 | 0.00 | 0.00 | 69 | |
| 20260901180204 | 83 | 229 | 1.0 | 3.0 | 0.00 | 0.00 | 0.00 | 71 | |
| 20260901175204 | 84 | 276 | 2.0 | 7.0 | 0.00 | 0.00 | 0.00 | 67 | |
| 20260901174204 | 85 | 224 | 2.0 | 7.0 | 0.00 | 0.00 | 0.00 | 64 | |
| 20260901173203 | 86 | 240 | 3.0 | 9.0 | 0.00 | 0.00 | 0.00 | 64 | |
| 20260901172204 | 86 | 243 | 2.0 | 8.0 | 0.00 | 0.00 | 0.00 | 65 | |
| 20260901171204 | 86 | 315 | 1.0 | 6.0 | 0.00 | 0.00 | 0.00 | 63 | |
| 20260901170204 | 86 | 277 | 1.0 | 6.0 | 0.00 | 0.00 | 0.00 | 64 | |
| 20260901165204 | 86 | 257 | 1.0 | 7.0 | 0.00 | 0.00 | 0.00 | 66 | |
| 20260901164204 | 85 | 253 | 3.0 | 6.0 | 0.00 | 0.00 | 0.00 | 65 | |
| 20260901163204 | 85 | 215 | 3.0 | 5.0 | 0.00 | 0.00 | 0.00 | 65 | |
| 20260901162204 | 84 | 247 | 0.0 | 2.0 | 0.00 | 0.00 | 0.00 | 70 | |
| 20260901161204 | 84 | 328 | 1.0 | 2.0 | 0.00 | 0.00 | 0.00 | 71 | |
| 20260901160204 | 83 | 300 | 0.0 | 6.0 | 0.00 | 0.00 | 0.00 | 72 | |
| 20260901155204 | 83 | 307 | 1.0 | 2.0 | 0.00 | 0.00 | 0.00 | 74 | |
| 20260901154203 | 82 | 210 | 0.0 | 3.0 | 0.00 | 0.00 | 0.00 | 76 | |
| 20260901153204 | 81 | 225 | 2.0 | 6.0 | 0.00 | 0.00 | 0.00 | 78 | |
| 20260901152204 | 80 | 202 | 3.0 | 5.0 | 0.00 | 0.00 | 0.00 | 81 | |
| 20260901151204 | 79 | 274 | 0.0 | 3.0 | 0.00 | 0.00 | 0.00 | 86 | |
| 20260901150208 | 78 | 236 | 0.0 | 5.0 | 0.00 | 0.00 | 0.00 | 88 | |
| 20260901145204 | 77 | 325 | 1.0 | 5.0 | 0.00 | 0.00 | 0.00 | 89 | |
| 20260901144204 | 78 | 288 | 0.0 | 1.0 | 0.00 | 0.00 | 0.00 | 89 | |
| 20260901143204 | 77 | 357 | 0.0 | 0.0 | 0.00 | 0.00 | 0.00 | 88 | |
| 20260901142204 | 77 | 357 | 1.0 | 2.0 | 0.00 | 0.00 | 0.00 | 89 | |
| 20260901141204 | 76 | 233 | 1.0 | 3.0 | 0.00 | 0.00 | 0.00 | 91 | |
| 20260901140204 | 76 | 33 | 0.0 | 5.0 | 0.00 | 0.00 | 0.00 | 91 | |
| 20260901135204 | 76 | 316 | 0.0 | 6.0 | 0.00 | 0.00 | 0.00 | 90 | |
| 20260901134204 | 76 | 338 | 2.0 | 5.0 | 0.00 | 0.00 | 0.00 | 90 | |
| 20260901133204 | 76 | 339 | 2.0 | 6.0 | 0.00 | 0.00 | 0.00 | 91 | |
| 20260901132203 | 75 | 293 | 1.0 | 6.0 | 0.00 | 0.00 | 0.00 | 93 | |
| 20260901131204 | 75 | 276 | 1.0 | 2.0 | 0.00 | 0.00 | 0.00 | 94 | |
| 20260901130204 | 74 | 348 | 1.0 | 3.0 | 0.00 | 0.00 | 0.00 | 94 | |
| 20260901125204 | 74 | 285 | 2.0 | 2.0 | 0.00 | 0.00 | 0.00 | 94 | |
| 20260901124204 | 73 | 236 | 0.0 | 0.0 | 0.00 | 0.00 | 0.00 | 95 | |
| 20260901123204 | 72 | 236 | 0.0 | 0.0 | 0.00 | 0.00 | 0.00 | 94 | |
| 20260901122204 | 72 | 236 | 0.0 | 0.0 | 0.00 | 0.00 | 0.00 | 94 | |
| 20260901121203 | 71 | 236 | 0.0 | 0.0 | 0.00 | 0.00 | 0.00 | 94 | |
| 20260901120204 | 72 | 236 | 0.0 | 0.0 | 0.00 | 0.00 | 0.00 | 94 | |
| 20260901115204 | 72 | 236 | 0.0 | 0.0 | 0.00 | 0.00 | 0.00 | 94 | |
| 20260901114204 | 71 | 236 | 0.0 | 0.0 | 0.00 | 0.00 | 0.00 | 94 | |
| 20260901113204 | 71 | 219 | 0.0 | 1.0 | 0.00 | 0.00 | 0.00 | 94 | |
| 20260901112204 | 72 | 212 | 0.0 | 1.0 | 0.00 | 0.00 | 0.00 | 94 | |
| 20260901111204 | 72 | 301 | 0.0 | 2.0 | 0.00 | 0.00 | 0.00 | 94 | |
| 20260901110207 | 72 | 338 | 0.0 | 1.0 | 0.00 | 0.00 | 0.00 | 94 | |
| 20260901105205 | 72 | 250 | 0.0 | 2.0 | 0.00 | 0.00 | 0.00 | 94 | |
| 20260901104204 | 72 | 280 | 0.0 | 2.0 | 0.00 | 0.00 | 0.00 | 94 | |
| 20260901103204 | 72 | 233 | 0.0 | 1.0 | 0.00 | 0.00 | 0.00 | 94 | |
| 20260901102204 | 72 | 261 | 0.0 | 0.0 | 0.00 | 0.00 | 0.00 | 93 | |
| 20260901101204 | 73 | 290 | 1.0 | 2.0 | 0.00 | 0.00 | 0.00 | 94 | |
| 20260901100205 | 72 | 213 | 0.0 | 1.0 | 0.00 | 0.00 | 0.00 | 93 | |
| 20260901095208 | 72 | 280 | 0.0 | 0.0 | 0.00 | 0.00 | 0.00 | 93 | |
| 20260901094204 | 73 | 280 | 0.0 | 0.0 | 0.00 | 0.00 | 0.00 | 92 | |
| 20260901093204 | 73 | 280 | 0.0 | 0.0 | 0.00 | 0.00 | 0.00 | 93 | |
| 20260901092204 | 73 | 280 | 0.0 | 0.0 | 0.00 | 0.00 | 0.00 | 92 | |
| 20260901091205 | 73 | 280 | 0.0 | 0.0 | 0.00 | 0.00 | 0.00 | 92 | |
| 20260901090208 | 74 | 280 | 0.0 | 0.0 | 0.00 | 0.00 | 0.00 | 92 | |
| 20260901085204 | 74 | 280 | 0.0 | 0.0 | 0.00 | 0.00 | 0.00 | 92 | |
| 20260901084204 | 74 | 280 | 0.0 | 2.0 | 0.00 | 0.00 | 0.00 | 92 | |
| 20260901083204 | 74 | 232 | 2.0 | 3.0 | 0.00 | 0.00 | 0.00 | 92 | |
| 20260901082204 | 74 | 253 | 2.0 | 6.0 | 0.00 | 0.00 | 0.00 | 92 | |
| 20260901081204 | 74 | 197 | 1.0 | 3.0 | 0.00 | 0.00 | 0.00 | 91 | |
| 20260901080204 | 74 | 224 | 2.0 | 5.0 | 0.00 | 0.00 | 0.00 | 91 | |
| 20260901075204 | 74 | 244 | 1.0 | 3.0 | 0.00 | 0.00 | 0.00 | 91 | |
| 20260901074204 | 74 | 250 | 1.0 | 5.0 | 0.00 | 0.00 | 0.00 | 91 | |
| 20260901073204 | 74 | 260 | 2.0 | 3.0 | 0.00 | 0.00 | 0.00 | 91 | |
| 20260901072204 | 74 | 273 | 1.0 | 5.0 | 0.00 | 0.00 | 0.00 | 91 | |
| 20260901071204 | 74 | 273 | 0.0 | 1.0 | 0.00 | 0.00 | 0.00 | 91 | |
| 20260901070207 | 74 | 257 | 1.0 | 3.0 | 0.00 | 0.00 | 0.00 | 91 | |
| 20260901065204 | 74 | 237 | 0.0 | 3.0 | 0.00 | 0.00 | 0.00 | 91 | |
| 20260901064204 | 74 | 252 | 1.0 | 2.0 | 0.00 | 0.00 | 0.00 | 91 | |
| 20260901063204 | 74 | 228 | 0.0 | 1.0 | 0.00 | 0.00 | 0.00 | 90 | |
| 20260901062204 | 74 | 217 | 2.0 | 5.0 | 0.00 | 0.00 | 0.00 | 91 | |
| 20260901061204 | 75 | 246 | 0.0 | 3.0 | 0.00 | 0.00 | 0.00 | 90 | |
| 20260901060204 | 74 | 331 | 0.0 | 3.0 | 0.00 | 0.00 | 0.00 | 90 | |
| 20260901055204 | 75 | 292 | 0.0 | 1.0 | 0.00 | 0.00 | 0.00 | 90 | |
| 20260901054204 | 75 | 231 | 0.0 | 2.0 | 0.00 | 0.00 | 0.00 | 89 | |
| 20260901053204 | 75 | 264 | 1.0 | 2.0 | 0.00 | 0.00 | 0.00 | 89 | |
| 20260901052205 | 75 | 301 | 0.0 | 2.0 | 0.00 | 0.00 | 0.00 | 89 | |
| 20260901051205 | 75 | 314 | 0.0 | 3.0 | 0.00 | 0.00 | 0.00 | 89 | |
| 20260901050203 | 75 | 199 | 1.0 | 3.0 | 0.00 | 0.00 | 0.00 | 89 | |
| 20260901045204 | 75 | 287 | 0.0 | 1.0 | 0.00 | 0.00 | 0.00 | 88 | |
| 20260901044204 | 75 | 308 | 0.0 | 0.0 | 0.00 | 0.00 | 0.00 | 88 | |
| 20260901043204 | 75 | 308 | 1.0 | 2.0 | 0.00 | 0.00 | 0.00 | 88 | |
| 20260901042204 | 75 | 291 | 0.0 | 2.0 | 0.00 | 0.00 | 0.00 | 88 | |
| 20260901041204 | 75 | 232 | 0.0 | 2.0 | 0.00 | 0.00 | 0.00 | 87 | |
| 20260901040204 | 76 | 251 | 1.0 | 2.0 | 0.00 | 0.00 | 0.00 | 86 | |
| 20260901035204 | 76 | 343 | 0.0 | 2.0 | 0.00 | 0.00 | 0.00 | 86 | |
| 20260901034204 | 76 | 167 | 0.0 | 2.0 | 0.00 | 0.00 | 0.00 | 86 | |
| 20260901033204 | 76 | 207 | 0.0 | 2.0 | 0.00 | 0.00 | 0.00 | 85 | |
| 20260901032204 | 77 | 193 | 0.0 | 1.0 | 0.00 | 0.00 | 0.00 | 84 | |
| 20260901031204 | 77 | 192 | 0.0 | 2.0 | 0.00 | 0.00 | 0.00 | 84 | |
| 20260901030204 | 77 | 235 | 0.0 | 1.0 | 0.00 | 0.00 | 0.00 | 84 | |
| 20260901025204 | 77 | 255 | 0.0 | 3.0 | 0.00 | 0.00 | 0.00 | 84 | |
| 20260901024204 | 77 | 213 | 1.0 | 3.0 | 0.00 | 0.00 | 0.00 | 84 | |
| 20260901023204 | 77 | 202 | 1.0 | 2.0 | 0.00 | 0.00 | 0.00 | 84 | |
| 20260901022204 | 77 | 208 | 1.0 | 2.0 | 0.00 | 0.00 | 0.00 | 84 | |
| 20260901021204 | 77 | 172 | 0.0 | 2.0 | 0.00 | 0.00 | 0.00 | 83 | |
| 20260901020204 | 77 | 194 | 0.0 | 1.0 | 0.00 | 0.00 | 0.00 | 82 | |
| 20260901015204 | 78 | 263 | 0.0 | 0.0 | 0.00 | 0.00 | 0.00 | 81 | |
| 20260901014204 | 78 | 2 | 0.0 | 1.0 | 0.00 | 0.00 | 0.00 | 80 | |
| 20260901013204 | 78 | 305 | 0.0 | 2.0 | 0.00 | 0.00 | 0.00 | 80 | |
| 20260901012204 | 78 | 288 | 1.0 | 2.0 | 0.00 | 0.01 | 0.00 | 80 | |
| 20260901011204 | 79 | 202 | 0.0 | 2.0 | 0.00 | 0.01 | 0.00 | 79 | |
| 20260901010204 | 79 | 256 | 1.0 | 5.0 | 0.00 | 0.01 | 0.00 | 78 | |
| 20260901005204 | 79 | 294 | 1.0 | 3.0 | 0.00 | 0.01 | 0.00 | 78 | |
| 20260901004205 | 79 | 262 | 2.0 | 5.0 | 0.00 | 0.01 | 0.00 | 77 | |
| 20260901003204 | 80 | 220 | 2.0 | 5.0 | 0.00 | 0.01 | 0.00 | 76 | |
| 20260901002204 | 80 | 248 | 1.0 | 5.0 | 0.00 | 0.01 | 0.00 | 74 | |
| 20260901001204 | 81 | 264 | 1.0 | 5.0 | 0.00 | 0.02 | 0.00 | 73 | |
| 20260901000204 | 81 | 244 | 2.0 | 7.0 | 0.00 | 0.02 | 0.00 | 71 | |
| 20260831235204 | 82 | 244 | 3.0 | 8.0 | 0.00 | 0.02 | 0.00 | 70 | |
| 20260831234204 | 82 | 273 | 3.0 | 7.0 | 0.00 | 0.02 | 0.00 | 69 | |
| 20260831233204 | 82 | 237 | 2.0 | 8.0 | 0.00 | 0.02 | 0.00 | 69 | |
| 20260831232204 | 82 | 248 | 3.0 | 8.0 | 0.00 | 0.02 | 0.00 | 69 | |
| 20260831231204 | 82 | 242 | 2.0 | 6.0 | 0.00 | 0.02 | 0.00 | 69 | |
| 20260831230207 | 82 | 215 | 2.0 | 7.0 | 0.00 | 0.02 | 0.00 | 69 | |
| 20260831225204 | 82 | 228 | 2.0 | 8.0 | 0.00 | 0.02 | 0.00 | 68 | |
| 20260831224203 | 83 | 161 | 0.0 | 5.0 | 0.00 | 0.02 | 0.00 | 68 | |
| 20260831223204 | 83 | 223 | 1.0 | 5.0 | 0.00 | 0.02 | 0.00 | 67 | |
| 20260831222204 | 83 | 234 | 2.0 | 8.0 | 0.00 | 0.02 | 0.00 | 67 | |
| 20260831221204 | 83 | 234 | 3.0 | 7.0 | 0.00 | 0.02 | 0.00 | 66 | |
| 20260831220204 | 83 | 256 | 3.0 | 8.0 | 0.00 | 0.02 | 0.00 | 65 | |
| 20260831215204 | 84 | 233 | 5.0 | 9.0 | 0.00 | 0.02 | 0.00 | 65 | |
| 20260831214204 | 84 | 174 | 3.0 | 7.0 | 0.00 | 0.02 | 0.00 | 64 | |
| 20260831213204 | 83 | 233 | 2.0 | 9.0 | 0.00 | 0.02 | 0.00 | 65 | |
| 20260831212204 | 83 | 231 | 2.0 | 6.0 | 0.00 | 0.02 | 0.00 | 64 | |
| 20260831211204 | 83 | 253 | 2.0 | 8.0 | 0.00 | 0.02 | 0.00 | 64 | |
| 20260831210204 | 83 | 235 | 3.0 | 8.0 | 0.00 | 0.02 | 0.00 | 64 | |
| 20260831205204 | 83 | 184 | 3.0 | 9.0 | 0.00 | 0.02 | 0.00 | 63 | |
| 20260831204203 | 85 | 269 | 5.0 | 8.0 | 0.00 | 0.02 | 0.00 | 61 | |
| 20260831203204 | 85 | 299 | 2.0 | 6.0 | 0.00 | 0.02 | 0.00 | 60 | |
| 20260831202204 | 84 | 209 | 3.0 | 10.0 | 0.00 | 0.02 | 0.00 | 62 | |
| 20260831201204 | 84 | 217 | 3.0 | 8.0 | 0.00 | 0.02 | 0.00 | 62 | |
| 20260831200204 | 84 | 230 | 2.0 | 7.0 | 0.00 | 0.02 | 0.00 | 63 | |
| 20260831195204 | 84 | 253 | 2.0 | 7.0 | 0.00 | 0.02 | 0.00 | 61 | |
| 20260831194204 | 84 | 265 | 1.0 | 7.0 | 0.00 | 0.02 | 0.00 | 59 | |
| 20260831193204 | 84 | 227 | 3.0 | 13.0 | 0.00 | 0.02 | 0.00 | 59 | |
| 20260831192205 | 84 | 215 | 5.0 | 10.0 | 0.00 | 0.02 | 0.00 | 59 | |
| 20260831191203 | 83 | 227 | 3.0 | 7.0 | 0.00 | 0.02 | 0.00 | 63 |